Weather reports worldwide

Advertisment
Northolt, United Kingdom (3672): temperature & dewpoint: 10.08.2017 18:00:00 - 16.08.2017 18:00:00 (BST)Northolt, United Kingdom (3672): temperature -20cm & temperature -100cm: 10.08.2017 18:00:00 - 16.08.2017 18:00:00 (BST)Northolt, United Kingdom (3672): wind speed: 10.08.2017 18:00:00 - 16.08.2017 18:00:00 (BST)Northolt, United Kingdom (3672): wind direction: 10.08.2017 18:00:00 - 16.08.2017 18:00:00 (BST)Northolt, United Kingdom (3672): reduced air pressure: 10.08.2017 18:00:00 - 16.08.2017 18:00:00 (BST)Northolt, United Kingdom (3672): visibility: 10.08.2017 18:00:00 - 16.08.2017 18:00:00 (BST)Northolt, United Kingdom (3672): precipitation: 10.08.2017 18:00:00 - 16.08.2017 18:00:00 (BST)
Date & Time tt [°C] td [°C] tt -20cm [°C] tt -100cm [°C] ff [km/h] ff [kn] dd ppp [hPa] vv [km] rr [mm]
16.08.2017 18:00:00 21,4 12,6 - - 22 12 SSW 1017,2 10 -
16.08.2017 17:00:00 21,6 12,5 - - 22 12 SW 1017,5 10 0,0
16.08.2017 16:00:00 21,8 12,2 - - 18 10 SW 1018,0 10 0,0
16.08.2017 15:00:00 21,7 13,2 - - 16 9 SSW 1018,7 10 0,0
16.08.2017 14:00:00 20,6 12,8 - - 21 11 SW 1019,2 10 0,0
16.08.2017 13:00:00 21,0 12,9 - - 16 9 SSW 1019,1 10 0,0
16.08.2017 12:00:00 19,2 12,0 - - 16 9 SW 1019,9 10 0,0
16.08.2017 11:00:00 17,9 13,1 - - 15 8 WSW 1020,6 10 0,0
16.08.2017 10:00:00 16,9 12,1 18,5 17,2 5 3 SW 1020,6 10 0,0
16.08.2017 09:00:00 14,5 11,3 - - 2 1 SW 1020,4 10 0,0
16.08.2017 08:00:00 12,5 10,1 - - 2 1 ENE 1020,4 10 0,0
16.08.2017 07:00:00 10,2 9,1 - - 2 1 NW 1020,3 10 0,0
16.08.2017 06:00:00 9,6 8,6 - - 2 1 NW 1020,1 10 0,0
16.08.2017 05:00:00 9,6 8,4 - - 4 2 W 1019,7 45 0,0
16.08.2017 04:00:00 10,0 8,7 - - 2 1 SW 1019,8 10 0,0
16.08.2017 03:00:00 10,4 8,8 - - 2 1 WNW 1019,9 10 0,0
16.08.2017 02:00:00 11,3 9,1 - - 5 3 WNW 1020,0 60 0,0
16.08.2017 01:00:00 12,1 9,5 - - 5 3 W 1019,9 10 0,0
16.08.2017 00:00:00 13,5 9,8 - - 5 3 WNW 1019,7 10 0,0
15.08.2017 23:00:00 14,8 10,4 - - 8 4 W 1019,3 10 0,0
15.08.2017 22:00:00 16,7 10,1 - - 11 6 WNW 1018,9 10 0,0
15.08.2017 21:00:00 18,5 10,9 - - 15 8 W 1018,1 10 0,0
15.08.2017 20:00:00 20,1 10,8 - - 15 8 W 1017,0 10 0,0
15.08.2017 19:00:00 21,6 11,4 - - 18 10 W 1016,3 10 0,0
15.08.2017 18:00:00 22,3 12,3 - - 18 10 WNW 1016,0 10 0,0
15.08.2017 17:00:00 22,8 12,9 - - 16 9 W 1015,9 10 0,0
15.08.2017 16:00:00 22,7 12,2 - - 18 10 W 1015,5 10 0,0
15.08.2017 15:00:00 22,6 12,8 - - 18 10 W 1015,4 10 0,0
15.08.2017 14:00:00 21,6 12,9 - - 18 10 W 1015,3 10 0,0
15.08.2017 13:00:00 21,8 13,4 - - 16 9 WNW 1014,9 10 0,0
15.08.2017 12:00:00 20,7 13,5 - - 16 9 WNW 1014,7 10 0,0
15.08.2017 11:00:00 18,5 13,5 - - 13 7 WNW 1014,7 10 0,0
15.08.2017 10:00:00 17,7 14,2 18,4 17,2 11 6 WNW 1014,5 10 0,0
15.08.2017 09:00:00 16,6 14,1 - - 8 4 WNW 1014,0 10 0,0
15.08.2017 08:00:00 15,6 14,2 - - 4 2 WNW 1013,7 10 0,0
15.08.2017 07:00:00 15,2 14,2 - - 2 1 NW 1013,2 10 0,2
15.08.2017 06:00:00 15,1 13,8 - - 4 2 W 1013,0 10 0,0
15.08.2017 05:00:00 14,8 13,3 - - 2 1 E 1013,3 10 0,0
15.08.2017 04:00:00 14,5 13,1 - - 2 1 SSW 1013,3 10 0,0
15.08.2017 03:00:00 14,9 13,3 - - 4 2 NNW 1012,9 28 0,0
15.08.2017 02:00:00 15,1 13,3 - - 2 1 SW 1013,7 10 0,0
15.08.2017 01:00:00 16,0 13,3 - - 4 2 WSW 1014,0 35 0,0
15.08.2017 00:00:00 16,7 13,0 - - 4 2 SW 1014,2 10 0,0
14.08.2017 23:00:00 17,1 12,7 - - 8 4 S 1014,2 10 0,0
14.08.2017 22:00:00 18,1 12,6 - - 5 3 SSW 1014,8 10 0,0
14.08.2017 21:00:00 19,3 12,4 - - 8 4 SW 1014,8 10 0,0
14.08.2017 20:00:00 19,9 11,6 - - 11 6 SW 1014,7 10 0,0
14.08.2017 19:00:00 20,6 12,0 - - 11 6 SSW 1014,5 10 0,0
14.08.2017 18:00:00 21,1 11,8 - - 13 7 SSW 1015,1 10 0,0
14.08.2017 17:00:00 21,7 11,8 - - 18 10 SW 1015,4 10 0,0
14.08.2017 16:00:00 22,4 12,5 - - 13 7 SSW 1015,6 10 0,0
14.08.2017 15:00:00 22,4 12,6 - - 15 8 SW 1015,9 10 0,0
14.08.2017 14:00:00 22,8 12,5 - - 16 9 SW 1016,2 10 0,0
14.08.2017 13:00:00 22,7 12,3 - - 13 7 SSW 1016,6 10 0,0
14.08.2017 12:00:00 21,5 12,2 - - 13 7 S 1017,4 10 0,0
14.08.2017 11:00:00 20,6 11,9 - - 13 7 SSW 1018,1 10 0,0
14.08.2017 10:00:00 18,9 12,3 18,2 17,2 11 6 SW 1018,8 10 0,0
14.08.2017 09:00:00 16,4 11,2 - - 5 3 SSW 1019,1 10 0,0
14.08.2017 08:00:00 12,9 10,3 - - 2 1 NNW 1019,2 10 0,0
14.08.2017 07:00:00 10,1 8,9 - - 2 1 NW 1019,1 10 0,0
14.08.2017 06:00:00 9,2 8,3 - - 4 2 W 1019,1 35 0,0
14.08.2017 05:00:00 9,1 8,4 - - 2 1 ESE 1019,3 35 0,0
14.08.2017 04:00:00 9,5 8,5 - - 2 1 SW 1019,7 10 0,0
14.08.2017 03:00:00 10,0 8,9 - - 2 1 SE 1020,0 10 0,0
14.08.2017 02:00:00 11,0 9,5 - - 2 1 S 1020,3 10 0,0
14.08.2017 01:00:00 12,0 10,0 - - 2 1 S 1020,7 28 0,0
14.08.2017 00:00:00 12,8 9,9 - - 2 1 WSW 1020,8 10 0,0
13.08.2017 23:00:00 14,6 10,4 - - 2 1 SSW 1020,9 50 0,0
13.08.2017 22:00:00 16,5 10,2 - - 0 0 N 1020,9 45 0,0
13.08.2017 21:00:00 17,6 9,5 - - 9 5 WSW 1020,9 10 0,0
13.08.2017 20:00:00 19,5 8,7 - - 9 5 W 1020,6 10 0,0
13.08.2017 19:00:00 21,2 8,5 - - 8 4 W 1020,4 10 0,0
13.08.2017 18:00:00 21,8 7,6 - - 8 4 W 1020,5 10 0,0
13.08.2017 17:00:00 22,2 8,7 - - 8 4 WNW 1020,7 10 0,0
13.08.2017 16:00:00 22,6 8,5 - - 11 6 SW 1021,0 10 0,0
13.08.2017 15:00:00 20,6 6,4 - - 4 2 W 1021,3 10 0,0
13.08.2017 14:00:00 21,5 7,3 - - 9 5 SSW 1021,3 10 0,0
13.08.2017 13:00:00 20,0 6,7 - - 9 5 N 1021,6 10 0,0
13.08.2017 12:00:00 19,0 6,5 - - 8 4 WNW 1022,0 10 0,0
13.08.2017 11:00:00 18,0 6,8 - - 8 4 N 1022,1 10 0,0
13.08.2017 10:00:00 16,9 8,8 18,0 17,2 4 2 WSW 1022,1 10 0,0
13.08.2017 09:00:00 14,4 9,1 - - 5 3 WNW 1021,8 10 0,0
13.08.2017 08:00:00 12,8 9,1 - - 9 5 NNW 1021,5 10 0,0
13.08.2017 07:00:00 11,3 8,7 - - 5 3 WNW 1021,2 10 0,0
13.08.2017 06:00:00 10,9 8,7 - - 8 4 NW 1020,8 10 0,0
13.08.2017 05:00:00 11,9 8,7 - - 4 2 WNW 1020,6 10 0,0
13.08.2017 04:00:00 12,2 8,8 - - 5 3 NW 1020,4 60 0,0
13.08.2017 03:00:00 14,2 8,7 - - 8 4 NNW 1020,1 65 0,0
13.08.2017 02:00:00 14,7 8,9 - - 9 5 NNW 1019,9 10 0,0
13.08.2017 01:00:00 15,0 9,7 - - 9 5 NNW 1019,6 75 0,0
13.08.2017 00:00:00 16,4 10,8 - - 8 4 WNW 1019,2 70 0,0
12.08.2017 23:00:00 16,9 10,9 - - 9 5 NW 1018,8 70 0,0
12.08.2017 22:00:00 17,2 11,4 - - 9 5 NNW 1018,4 10 0,0
12.08.2017 21:00:00 18,3 11,2 - - 11 6 W 1017,7 10 0,0
12.08.2017 20:00:00 19,9 10,4 - - 13 7 W 1017,0 10 0,0
12.08.2017 19:00:00 20,3 11,0 - - 16 9 W 1016,5 10 0,0
12.08.2017 18:00:00 21,6 9,8 - - 15 8 NW 1016,4 10 0,0
12.08.2017 17:00:00 21,2 10,3 - - 21 11 W 1016,2 10 0,0
12.08.2017 16:00:00 20,1 10,2 - - 16 9 WNW 1016,2 10 0,0
12.08.2017 15:00:00 19,7 10,8 - - 18 10 WNW 1016,0 10 0,0
12.08.2017 14:00:00 19,8 10,1 - - 16 9 WNW 1015,9 10 0,0
12.08.2017 13:00:00 20,0 11,5 - - 21 11 W 1015,4 10 0,0
12.08.2017 12:00:00 19,7 11,4 - - 24 13 WNW 1015,2 10 0,0
12.08.2017 11:00:00 19,9 13,1 - - 22 12 WNW 1014,9 10 0,0
12.08.2017 10:00:00 18,8 14,6 17,9 17,2 18 10 W 1014,9 10 0,0
12.08.2017 09:00:00 18,2 14,7 - - 15 8 WNW 1014,9 10 0,0
12.08.2017 08:00:00 17,4 14,8 - - 18 10 W 1014,7 10 0,0
12.08.2017 07:00:00 16,7 15,3 - - 13 7 WSW 1014,3 10 0,0
12.08.2017 06:00:00 16,5 15,1 - - 9 5 W 1014,0 65 0,0
12.08.2017 05:00:00 16,5 15,6 - - 9 5 W 1014,0 10 0,0
12.08.2017 04:00:00 16,6 15,2 - - 13 7 WSW 1014,1 10 0,0
12.08.2017 03:00:00 16,8 15,0 - - 18 10 WSW 1014,4 10 0,0
12.08.2017 02:00:00 16,8 14,8 - - 15 8 WSW 1014,5 10 0,0
12.08.2017 01:00:00 16,8 14,7 - - 18 10 WSW 1014,9 10 0,0
12.08.2017 00:00:00 16,7 14,5 - - 16 9 WSW 1015,4 10 0,0
11.08.2017 23:00:00 16,6 14,1 - - 16 9 WSW 1016,0 40 0,0
11.08.2017 22:00:00 16,5 13,9 - - 18 10 WSW 1016,4 50 0,0
11.08.2017 21:00:00 17,4 13,1 - - 18 10 WSW 1016,7 10 0,0
11.08.2017 20:00:00 17,9 12,8 - - 21 11 WSW 1016,6 10 0,0
11.08.2017 19:00:00 18,5 12,3 - - 18 10 W 1016,8 10 0,0
11.08.2017 18:00:00 18,6 12,2 - - 22 12 W 1017,3 10 0,0
11.08.2017 17:00:00 18,7 11,9 - - 26 14 W 1017,6 10 0,0
11.08.2017 16:00:00 19,8 10,5 - - 24 13 W 1017,8 10 0,0
11.08.2017 15:00:00 20,4 10,2 - - 21 11 W 1018,1 10 0,0
11.08.2017 14:00:00 20,2 10,1 - - 21 11 W 1018,4 10 0,0
11.08.2017 13:00:00 20,2 9,2 - - 24 13 W 1018,8 10 0,0
11.08.2017 12:00:00 19,3 9,0 - - 16 9 WSW 1019,2 10 0,0
11.08.2017 11:00:00 18,7 10,5 - - 16 9 W 1019,4 10 0,0
11.08.2017 10:00:00 16,9 10,7 17,2 17,2 15 8 WSW 1019,7 10 0,0
11.08.2017 09:00:00 14,7 11,8 - - 8 4 SW 1020,0 10 0,0
11.08.2017 08:00:00 12,3 10,9 - - 5 3 SW 1020,2 10 0,0
11.08.2017 07:00:00 9,2 8,6 - - 2 1 W 1020,7 10 0,0
11.08.2017 06:00:00 8,8 8,4 - - 4 2 ESE 1020,7 10 0,0
11.08.2017 05:00:00 8,3 7,7 - - 2 1 WNW 1020,7 10 0,0
11.08.2017 04:00:00 8,9 8,5 - - 4 2 E 1021,2 10 0,0
11.08.2017 03:00:00 8,7 8,2 - - 2 1 W 1021,5 10 0,0
11.08.2017 02:00:00 10,1 9,5 - - 2 1 E 1021,9 10 0,0
11.08.2017 01:00:00 10,6 9,9 - - 4 2 W 1022,3 10 0,0
11.08.2017 00:00:00 11,4 9,9 - - 2 1 N 1022,9 10 0,0
10.08.2017 23:00:00 12,4 9,8 - - 4 2 NW 1022,9 10 0,0
10.08.2017 22:00:00 14,1 9,7 - - 2 1 S 1022,9 10 0,0
10.08.2017 21:00:00 16,8 9,4 - - 4 2 NE 1022,8 10 0,0
10.08.2017 20:00:00 19,2 8,3 - - 8 4 NE 1022,6 10 0,0
10.08.2017 19:00:00 19,5 8,1 - - 13 7 NE 1022,5 10 0,0
10.08.2017 18:00:00 19,4 7,5 - - 16 9 NNE 1022,6 10 0,0

tt = temperature
td = dewpoint
tt -20cm = temperature -20cm
tt -100cm = temperature -100cm
ff = wind speed
dd = wind direction
ppp = reduced air pressure
vv = visibility
rr = precipitation

Next stations